GW0571 Weather Reports


time (UTC)temp
C
wind
direction
speed
KPH
gust
KPH
rain 1hr
cm
rain 24hr
cm
rain mn
cm
humidity
%
barometer
mb
20260502203551 6 233 9.7 11.3 0.00 0.00 0.00 52 1012.5
20260502203048 6 264 1.6 6.4 0.00 0.00 0.00 52 1012.3
20260502202544 6 289 3.2 4.8 0.00 0.00 0.00 52 1012.8
20260502202042 6 321 3.2 4.8 0.00 0.00 0.00 50 1012.6
20260502201538 6 7 3.2 6.4 0.00 0.00 0.00 50 1012.5
20260502201034 6 25 6.4 8.0 0.00 0.00 0.00 49 1012.4
20260502200530 6 3 3.2 9.7 0.00 0.00 0.00 50 1012.6
20260502200029 7 339 3.2 6.4 0.00 0.00 0.00 50 1012.8
20260502195526 7 359 4.8 9.7 0.00 0.00 0.00 49 1012.6
20260502195021 7 4 3.2 3.2 0.00 0.00 0.00 49 1012.7
20260502194519 7 357 3.2 4.8 0.00 0.00 0.00 49 1012.7
20260502194014 7 5 4.8 6.4 0.00 0.00 0.00 48 1013.0
20260502193512 7 342 0.0 11.3 0.00 0.00 0.00 48 1012.9
20260502193009 7 221 9.7 19.3 0.00 0.00 0.00 47 1013.1
20260502192505 7 226 6.4 12.9 0.00 0.00 0.00 48 1013.0
20260502192002 7 230 8.0 16.1 0.00 0.00 0.00 46 1013.0
20260502191459 7 244 12.9 12.9 0.00 0.00 0.00 47 1013.0
20260502190957 7 260 4.8 11.3 0.00 0.00 0.00 45 1013.0
20260502190454 7 331 3.2 9.7 0.00 0.00 0.00 47 1013.1
20260502185950 7 231 9.7 17.7 0.00 0.00 0.00 45 1013.2
20260502185446 7 169 4.8 14.5 0.00 0.00 0.00 48 1013.1
20260502184943 7 241 3.2 11.3 0.00 0.00 0.00 43 1013.2
20260502184438 7 239 4.8 14.5 0.00 0.00 0.00 45 1013.3
20260502183935 7 328 3.2 16.1 0.00 0.00 0.00 47 1013.1
20260502183431 7 196 3.2 8.0 0.00 0.00 0.00 45 1013.3
20260502182926 7 141 6.4 12.9 0.00 0.00 0.00 46 1013.3
20260502182422 7 334 3.2 12.9 0.00 0.00 0.00 46 1013.1
20260502181918 7 223 8.0 19.3 0.00 0.00 0.00 45 1013.3
20260502181417 7 234 11.3 22.5 0.00 0.00 0.00 45 1013.2
20260502180915 7 266 3.2 9.7 0.00 0.00 0.00 45 1013.3
20260502180412 7 249 14.5 17.7 0.00 0.00 0.00 46 1013.3
20260502170331 7 327 4.8 12.9 0.00 0.00 0.00 47 1013.1
20260502164318 7 47 6.4 9.7 0.00 0.00 0.00 44 1013.1
20260502163814 7 152 3.2 24.1 0.00 0.00 0.00 45 1013.4
20260502163310 7 325 4.8 14.5 0.00 0.00 0.00 45 1013.2
20260502162808 7 359 4.8 9.7 0.00 0.00 0.00 44 1013.2
20260502162305 7 48 3.2 14.5 0.00 0.00 0.00 40 1013.3
20260502161801 7 295 8.0 14.5 0.00 0.00 0.00 44 1013.5
20260502161257 7 9 4.8 11.3 0.00 0.00 0.00 40 1013.4
20260502160756 7 0 9.7 20.9 0.00 0.00 0.00 41 1013.2
20260502160254 8 355 8.0 8.0 0.00 0.00 0.00 46 1013.2
20260502152224 7 260 6.4 17.7 0.00 0.00 0.00 42 1013.5
20260502151721 7 292 3.2 22.5 0.00 0.00 0.00 44 1013.4
20260502151218 7 343 8.0 27.4 0.00 0.00 0.00 44 1013.5
20260502150715 7 276 6.4 27.4 0.00 0.00 0.00 43 1013.5
20260502150212 6 10 6.4 14.5 0.00 0.00 0.00 43 1013.5
20260502130601 5 352 4.8 9.7 0.00 0.00 0.00 68 1013.7
20260502123543 4 1 4.8 9.7 0.00 0.00 0.00 78 1013.7
20260502123040 3 293 4.8 16.1 0.00 0.00 0.00 77 1013.7
20260502122537 3 328 4.8 12.9 0.00 0.00 0.00 78 1013.7
20260502122034 4 304 6.4 14.5 0.00 0.00 0.00 82 1013.8
20260502121532 4 337 1.6 8.0 0.00 0.00 0.00 83 1013.8
20260502121029 4 15 6.4 12.9 0.00 0.00 0.00 84 1013.6
20260502120525 3 324 4.8 8.0 0.00 0.00 0.00 83 1013.7
20260502115520 3 348 4.8 6.4 0.00 0.00 0.00 86 1013.6
20260502115015 4 14 3.2 8.0 0.00 0.00 0.00 87 1013.7
20260502114513 3 352 3.2 8.0 0.00 0.00 0.00 88 1013.7
20260502114009 3 333 3.2 8.0 0.00 0.00 0.00 89 1013.8
20260502113507 3 46 9.7 9.7 0.00 0.00 0.00 90 1013.9
20260502113005 3 318 0.0 6.4 0.00 0.00 0.00 92 1013.7
20260502112502 3 228 0.0 6.4 0.00 0.00 0.00 93 1013.6
20260502112000 3 94 0.0 6.4 0.00 0.00 0.00 94 1013.6
20260502111457 3 24 3.2 4.8 0.00 0.00 0.00 95 1013.7
20260502110954 3 231 0.0 4.8 0.00 0.00 0.00 95 1013.5
20260502110452 3 246 0.0 1.6 0.00 0.00 0.00 95 1013.6
20260502105949 3 52 1.6 3.2 0.00 0.00 0.00 95 1013.4
20260502105447 2 96 1.6 4.8 0.00 0.00 0.00 95 1013.4
20260502104944 2 107 4.8 4.8 0.00 0.00 0.00 95 1013.3
20260502104441 2 82 3.2 4.8 0.00 0.00 0.00 95 1013.2
20260502103938 2 105 1.6 4.8 0.00 0.00 0.00 94 1013.2
20260502103436 2 95 1.6 3.2 0.00 0.00 0.00 94 1013.2
20260502102933 3 114 3.2 4.8 0.00 0.00 0.00 94 1013.2
20260502102430 3 76 3.2 3.2 0.00 0.00 0.00 94 1013.2
20260502101927 3 19 0.0 3.2 0.00 0.00 0.00 94 1013.0
20260502101425 3 77 0.0 3.2 0.00 0.00 0.00 94 1013.3
20260502100923 3 19 3.2 4.8 0.00 0.00 0.00 94 1013.1
20260502100422 3 307 0.0 4.8 0.00 0.00 0.00 94 1013.1
20260502091356 2 151 0.0 3.2 0.00 0.00 0.00 95 1012.6
20260502090853 3 327 0.0 3.2 0.00 0.00 0.00 95 1012.7
20260502090350 3 206 3.2 3.2 0.00 0.00 0.00 95 1012.7
20260502071245 3 44 0.0 0.0 0.00 0.00 0.00 96 1012.1
20260502070743 3 44 0.0 1.6 0.00 0.00 0.00 96 1012.0
20260502070240 3 293 0.0 4.8 0.00 0.00 0.00 95 1012.2
20260502065739 3 349 1.6 3.2 0.00 0.00 0.00 95 1012.0
20260502065236 3 22 0.0 3.2 0.00 0.00 0.00 95 1012.2
20260502064735 3 309 1.6 4.8 0.00 0.00 0.00 95 1012.2
20260502064232 3 334 1.6 6.4 0.00 0.00 0.00 95 1011.8
20260502063729 3 269 0.0 3.2 0.00 0.00 0.00 95 1012.1
20260502063227 3 27 3.2 8.0 0.00 0.00 0.00 95 1011.7
20260502062724 3 341 0.0 8.0 0.00 0.00 0.00 95 1012.1
20260502062222 3 8 4.8 8.0 0.00 0.00 0.00 95 1012.3
20260502061720 3 37 1.6 4.8 0.00 0.00 0.00 96 1012.3
20260502061217 3 349 1.6 4.8 0.00 0.00 0.00 96 1012.4
20260502060712 3 34 0.0 4.8 0.00 0.00 0.00 96 1012.4
20260502060209 3 357 4.8 4.8 0.00 0.00 0.00 96 1012.1
20260502055707 3 327 3.2 8.0 0.00 0.00 0.00 96 1012.0
20260502055204 3 317 3.2 8.0 0.00 0.00 0.00 96 1012.1
20260502054704 3 325 0.0 4.8 0.00 0.00 0.00 96 1012.1
20260502054200 3 269 0.0 4.8 0.00 0.00 0.00 96 1012.0
20260502053658 3 300 1.6 8.0 0.00 0.00 0.00 96 1011.8
20260502053154 3 339 3.2 8.0 0.00 0.00 0.00 96 1012.1
20260502052653 3 310 3.2 6.4 0.00 0.00 0.00 96 1012.0
20260502052151 3 336 3.2 6.4 0.00 0.00 0.00 96 1012.0
20260502051648 3 277 6.4 11.3 0.00 0.00 0.00 96 1012.2
20260502051146 3 260 3.2 4.8 0.00 0.00 0.00 96 1012.0
20260502050642 3 345 3.2 6.4 0.00 0.00 0.00 95 1011.8
20260502050139 3 356 4.8 8.0 0.00 0.00 0.00 95 1012.2
20260502045636 3 291 4.8 8.0 0.00 0.00 0.00 96 1012.2
20260502045133 4 304 3.2 8.0 0.00 0.00 0.00 96 1012.2
20260502044629 4 345 8.0 11.3 0.00 0.00 0.00 96 1012.4
20260502044126 5 354 3.2 4.8 0.00 0.00 0.00 96 1012.5
20260502043624 5 250 6.4 9.7 0.00 0.00 0.00 96 1012.4
20260502043121 5 186 3.2 4.8 0.00 0.00 0.00 96 1012.2
20260502042615 5 201 3.2 8.0 0.00 0.00 0.00 96 1012.0
20260502042112 5 230 6.4 8.0 0.00 0.00 0.00 96 1012.2
20260502041610 5 241 0.0 3.2 0.00 0.00 0.00 96 1012.1
20260502041107 5 240 4.8 4.8 0.00 0.00 0.00 96 1011.8
20260502040603 5 146 1.6 8.0 0.00 0.00 0.00 96 1011.7
20260502040101 5 231 3.2 8.0 0.00 0.41 0.41 96 1012.0
20260502035556 5 208 3.2 6.4 0.00 0.41 0.41 96 1011.8
20260502035054 5 242 3.2 8.0 0.00 0.41 0.41 96 1011.8
20260502034552 5 200 3.2 9.7 0.00 0.41 0.41 96 1011.8
20260502034050 5 43 0.0 9.7 0.00 0.41 0.41 96 1011.7
20260502033548 5 209 4.8 11.3 0.05 0.41 0.41 96 1011.7
20260502033045 5 235 1.6 3.2 0.00 0.38 0.38 96 1011.7
20260502032541 5 217 9.7 12.9 0.05 0.38 0.38 96 1011.8
20260502032038 5 134 0.0 12.9 0.13 0.38 0.38 96 1011.8
20260502031536 5 327 3.2 19.3 0.18 0.38 0.38 96 1012.1
20260502031033 5 289 3.2 11.3 0.18 0.38 0.38 96 1012.0
20260502030532 5 234 4.8 9.7 0.13 0.36 0.36 96 1012.1
20260502030029 5 223 1.6 3.2 0.13 0.33 0.33 96 1012.0
20260502025526 5 98 0.0 3.2 0.05 0.33 0.33 96 1012.0
20260502025025 5 233 3.2 4.8 0.05 0.33 0.33 96 1011.7
20260502024521 5 224 0.0 3.2 0.05 0.33 0.33 96 1012.0
20260502024020 5 150 0.0 3.2 0.00 0.30 0.30 96 1011.6
20260502023517 5 98 0.0 4.8 0.00 0.30 0.30 96 1011.8
20260502023014 5 138 3.2 3.2 0.00 0.30 0.30 96 1012.0
20260502022511 5 121 1.6 3.2 0.05 0.30 0.30 96 1012.0
20260502022009 5 124 0.0 3.2 0.13 0.30 0.30 96 1012.0
20260502021506 5 118 1.6 3.2 0.05 0.30 0.30 96 1012.1
20260502021002 5 168 0.0 3.2 0.13 0.28 0.28 96 1012.1
20260502020500 5 116 1.6 6.4 0.13 0.28 0.28 96 1012.1
20260502015956 5 143 1.6 4.8 0.13 0.28 0.28 96 1012.0
20260502015455 5 118 1.6 3.2 0.05 0.25 0.25 96 1012.0
20260502014951 5 110 0.0 1.6 0.00 0.25 0.25 96 1011.8
20260502014448 5 127 0.0 3.2 0.05 0.25 0.25 96 1011.8
20260502013944 5 129 4.8 4.8 0.05 0.25 0.25 96 1011.5
20260502013440 5 106 1.6 3.2 0.05 0.23 0.23 96 1011.6
20260502012936 5 89 0.0 3.2 0.05 0.23 0.23 96 1011.7
20260502012434 5 157 0.0 1.6 0.00 0.23 0.23 96 1011.8
20260502011932 5 132 3.2 4.8 0.05 0.23 0.23 96 1012.0
20260502011428 5 110 4.8 4.8 0.05 0.23 0.23 96 1012.0
20260502010925 5 114 3.2 3.2 0.00 0.23 0.23 96 1012.0
20260502010421 5 106 3.2 4.8 0.05 0.23 0.23 96 1011.7
20260502005918 5 157 1.6 6.4 0.05 0.23 0.23 96 1011.7
20260502005416 5 108 3.2 4.8 0.13 0.20 0.20 96 1012.0
20260502004914 5 111 3.2 4.8 0.13 0.20 0.20 96 1011.8
20260502004409 5 129 3.2 4.8 0.13 0.20 0.20 96 1012.0
20260502003906 5 114 3.2 3.2 0.05 0.18 0.18 95 1011.7
20260502003404 5 123 3.2 4.8 0.05 0.18 0.18 95 1011.6
20260502002900 5 108 3.2 4.8 0.05 0.18 0.18 95 1011.6
20260502002358 5 150 1.6 4.8 0.05 0.18 0.18 95 1011.5
20260502001855 5 148 3.2 4.8 0.05 0.15 0.15 95 1011.4
20260502001352 5 180 1.6 4.8 0.05 0.15 0.15 95 1011.5
20260502000849 5 249 0.0 6.4 0.13 0.15 0.15 95 1011.5
20260502000348 5 139 4.8 8.0 0.05 0.15 0.15 95 1011.7
20260501235844 6 217 3.2 4.8 0.13 0.15 0.15 95 1011.5
20260501235339 6 123 3.2 6.4 0.05 0.13 0.13 94 1011.4
20260501234835 6 117 1.6 4.8 0.13 0.13 0.13 94 1011.3
20260501234332 6 119 3.2 4.8 0.13 0.10 0.10 94 1011.5
20260501233831 6 136 1.6 4.8 0.13 0.10 0.10 93 1011.4
20260501233328 6 233 0.0 4.8 0.13 0.10 0.10 93 1011.4
20260501232823 6 64 0.0 4.8 0.18 0.10 0.10 92 1011.4
20260501232321 6 197 3.2 4.8 0.18 0.08 0.08 92 1011.3
20260501231818 6 257 0.0 6.4 0.13 0.05 0.05 90 1011.5
20260501231316 6 242 6.4 11.3 0.13 0.05 0.05 89 1011.4
20260501230814 6 237 4.8 16.1 0.05 0.03 0.03 85 1011.3
20260501230313 7 263 1.6 8.0 0.00 0.00 0.00 82 1011.4
20260501225809 7 242 4.8 8.0 0.05 0.00 0.00 79 1011.2
20260501225307 7 233 6.4 8.0 0.05 0.00 0.00 77 1011.3
20260501224803 7 249 4.8 8.0 0.00 0.00 0.00 75 1011.1
20260501224301 8 223 3.2 8.0 0.00 0.00 0.00 73 1011.2
20260501223756 8 208 3.2 9.7 0.00 0.00 0.00 71 1011.2
20260501223253 8 226 4.8 8.0 0.00 0.00 0.00 69 1011.1
20260501222749 8 243 4.8 9.7 0.00 0.00 0.00 67 1011.0
20260501222246 8 180 0.0 8.0 0.00 0.00 0.00 67 1011.0
20260501221743 8 220 3.2 8.0 0.00 0.00 0.00 66 1011.0
20260501221241 8 235 3.2 8.0 0.00 0.00 0.00 64 1010.9
20260501220738 8 250 11.3 11.3 0.00 0.00 0.00 63 1011.0
20260501220235 8 253 9.7 14.5 0.00 0.00 0.00 63 1010.9
20260501215732 9 235 4.8 6.4 0.00 0.00 0.00 64 1011.1
20260501215227 9 199 6.4 19.3 0.00 0.00 0.00 62 1011.1
20260501214723 9 8 0.0 11.3 0.00 0.00 0.00 60 1010.9
20260501214219 9 246 6.4 9.7 0.00 0.00 0.00 60 1010.8
20260501213716 9 289 6.4 14.5 0.00 0.00 0.00 60 1011.0
20260501213211 10 242 11.3 11.3 0.00 0.00 0.00 61 1011.1
20260501212702 10 204 4.8 8.0 0.00 0.00 0.00 59 1011.0
20260501212159 10 202 1.6 11.3 0.00 0.00 0.00 61 1010.9
20260501211655 10 204 4.8 12.9 0.00 0.00 0.00 60 1010.8
20260501211153 10 233 6.4 9.7 0.00 0.00 0.00 59 1010.9
20260501210650 9 152 3.2 11.3 0.00 0.00 0.00 57 1011.0
20260501210146 10 200 4.8 9.7 0.00 0.00 0.00 57 1010.9
20260501205642 10 274 4.8 9.7 0.00 0.00 0.00 58 1011.0
20260501205140 10 216 9.7 17.7 0.00 0.00 0.00 57 1011.0
20260501204637 10 343 3.2 4.8 0.00 0.00 0.00 56 1011.0
20260501204132 10 162 3.2 11.3 0.00 0.00 0.00 55 1011.1
20260501203629 10 43 1.6 3.2 0.00 0.00 0.00 59 1010.9